Location: Cisewo
(53.3833°N, 14.9000°E)
Time: 14:06:54
(UTC+00:00)

Orbus 7S? - Pass Details

Date: 18 April 2021
Orbit: 334 x 6415 km, 56.9° (Epoch: 06 May)

Event Time Altitude Azimuth Distance (km) Brightness Sun altitude
Rises 20:16:27 0° 242° (WSW) 2,324 6.7 -16.7°
Reaches altitude 10° 20:17:58 10° 241° (WSW) 1,636 5.9 -16.9°
Maximum altitude 20:21:18 86° 154° (SSE) 695 3.7 -17.2°
Drops below altitude 10° 20:28:36 10° 66° (ENE) 3,497 7.2 -17.9°
Sets 20:33:15 0° 67° (ENE) 5,385 8.2 -18.4°
